TOMSK-TPU 120 (42910 NORAD) Tracking and Keplerian Element Data

This shows tracking and keplerian element data for the satellite.

Feedback or suggestion? Click here.




ElementValue
Catalog42910
NameTOMSK-TPU 120
Epoch Orbit12429
Epoch Day290.5201541
Epoch Year2019
RAAN10.967
Inclination51.6268
Eccentricity0.001026
Argument of Perigee348.6867
Mean Anonmoly96.0165
Mean Motion16.20455877
Decay Rate0.00981258
L11 42910U 98067MZ 19290.52015410 .00981258 11875-4 47154-3 0 9998
L22 42910 51.6268 10.9670 0010260 348.6867 96.0165 16.20455877124290



Live tracking and technical data element details for TOMSK-TPU 120 (NORAD 42910). TOMSK-TPU 120 can be tracked NOW for your location showing map with azimuth and elevation plus other details from your city location.







IsCatalogInMostPopularTable: catalog: 42910, numindb: 743
Update: records affected: 1



GetName: 42910 TOMSK-TPU 120

Hit Count: updated at: Tue, 20 Jan 2026 19:30:18 GMT